TimeEET,TemperatureF,Dew PointF,Humidity,Sea Level PressureIn,VisibilityMPH,Wind Direction,Wind SpeedMPH,Gust SpeedMPH,PrecipitationIn,Events,Conditions,WindDirDegrees,DateUTC
12:20 AM,55.4,46.4,72,29.98,6.2,Variable,2.3,-,N/A,,Scattered Clouds,0,2013-12-06 22:20:00
12:50 AM,55.4,46.4,72,29.95,6.2,Variable,3.5,-,N/A,,Scattered Clouds,0,2013-12-06 22:50:00
1:20 AM,55.4,46.4,72,29.95,6.2,Variable,3.5,-,N/A,,Scattered Clouds,0,2013-12-06 23:20:00
1:50 AM,55.4,46.4,72,29.95,6.2,South,4.6,-,N/A,,Scattered Clouds,170,2013-12-06 23:50:00
2:00 AM,56,46,59,29.95,6,South,4.6,,,,Partly Cloudy,170,2013-12-07 00:00:00
2:20 AM,55.4,46.4,72,29.95,6.2,South,4.6,-,N/A,,Scattered Clouds,170,2013-12-07 00:20:00
2:50 AM,53.6,46.4,77,29.92,6.2,SSE,4.6,-,N/A,,Scattered Clouds,150,2013-12-07 00:50:00
3:20 AM,53.6,46.4,77,29.92,6.2,SSE,4.6,-,N/A,,Scattered Clouds,160,2013-12-07 01:20:00
3:50 AM,53.6,46.4,77,29.92,6.2,South,4.6,-,N/A,,Scattered Clouds,170,2013-12-07 01:50:00
4:20 AM,53.6,46.4,77,29.92,6.2,South,4.6,-,N/A,,Scattered Clouds,170,2013-12-07 02:20:00
4:50 AM,55.4,50.0,82,29.89,6.2,South,4.6,-,N/A,,Scattered Clouds,170,2013-12-07 02:50:00
5:20 AM,55.4,50.0,82,29.89,6.2,SSE,4.6,-,N/A,Rain,Light Rain,150,2013-12-07 03:20:00
5:50 AM,55.4,50.0,82,29.92,6.2,Variable,3.5,-,N/A,Rain,Light Rain,0,2013-12-07 03:50:00
6:20 AM,53.6,51.8,94,29.92,5.0,SW,9.2,-,N/A,Rain,Rain,220,2013-12-07 04:20:00
6:50 AM,55.4,53.6,94,29.92,5.6,Variable,3.5,-,N/A,Rain,Light Rain,0,2013-12-07 04:50:00
7:20 AM,55.4,53.6,94,29.92,6.2,Variable,1.2,-,N/A,,Mostly Cloudy,0,2013-12-07 05:20:00
7:50 AM,55.4,51.8,88,29.92,6.2,Variable,3.5,-,N/A,,Mostly Cloudy,0,2013-12-07 05:50:00
8:00 AM,55,52,86,29.92,6,,3.5,,,,,,2013-12-07 06:00:00
8:20 AM,55.4,51.8,88,29.92,6.2,Variable,3.5,-,N/A,,Scattered Clouds,0,2013-12-07 06:20:00
8:50 AM,57.2,51.8,82,29.92,6.2,Variable,3.5,-,N/A,,Scattered Clouds,0,2013-12-07 06:50:00
9:20 AM,57.2,51.8,82,29.92,6.2,SSW,8.1,-,N/A,,Scattered Clouds,200,2013-12-07 07:20:00
9:50 AM,57.2,50.0,77,29.92,6.2,SSW,5.8,-,N/A,,Drizzle,210,2013-12-07 07:50:00
10:20 AM,57.2,50.0,77,29.92,5.6,WSW,11.5,-,N/A,Rain,Rain,250,2013-12-07 08:20:00
10:50 AM,59.0,51.8,77,29.92,6.2,SW,8.1,-,N/A,,Scattered Clouds,220,2013-12-07 08:50:00
11:20 AM,59.0,51.8,77,29.92,6.2,SW,11.5,-,N/A,,Scattered Clouds,230,2013-12-07 09:20:00
11:50 AM,59.0,51.8,77,29.92,6.2,SW,11.5,-,N/A,,Scattered Clouds,230,2013-12-07 09:50:00
12:20 PM,59.0,51.8,77,29.89,6.2,West,15.0,-,N/A,,Scattered Clouds,260,2013-12-07 10:20:00
12:50 PM,59.0,51.8,77,29.89,6.2,WSW,15.0,-,N/A,,Scattered Clouds,250,2013-12-07 10:50:00
1:20 PM,59.0,51.8,77,29.89,6.2,WSW,12.7,-,N/A,,Scattered Clouds,250,2013-12-07 11:20:00
1:50 PM,59.0,51.8,77,29.89,6.2,WSW,16.1,-,N/A,,Scattered Clouds,250,2013-12-07 11:50:00
2:00 PM,60,52,66,29.91,6,WSW,16.1,,,,Partly Cloudy,250,2013-12-07 12:00:00
2:20 PM,59.0,51.8,77,29.89,6.2,West,15.0,-,N/A,,Scattered Clouds,260,2013-12-07 12:20:00
2:50 PM,59.0,51.8,77,29.89,6.2,WSW,18.4,-,N/A,,Scattered Clouds,240,2013-12-07 12:50:00
3:20 PM,59.0,51.8,77,29.89,6.2,WSW,16.1,-,N/A,,Scattered Clouds,240,2013-12-07 13:20:00
3:50 PM,60.8,50.0,68,29.89,6.2,West,16.1,-,N/A,,Scattered Clouds,260,2013-12-07 13:50:00
4:20 PM,60.8,35.6,39,29.92,6.2,West,16.1,-,N/A,,Scattered Clouds,260,2013-12-07 14:20:00
4:50 PM,59.0,51.8,77,29.92,6.2,West,16.1,-,N/A,,Mostly Cloudy,260,2013-12-07 14:50:00
5:20 PM,57.2,51.8,82,29.92,6.2,NW,13.8,-,N/A,,Mostly Cloudy,310,2013-12-07 15:20:00
5:50 PM,59.0,51.8,77,29.92,6.2,NW,17.3,-,N/A,,Mostly Cloudy,310,2013-12-07 15:50:00
6:20 PM,57.2,53.6,88,29.92,6.2,WNW,15.0,-,N/A,,Mostly Cloudy,300,2013-12-07 16:20:00
6:50 PM,57.2,51.8,82,29.98,6.2,WNW,15.0,-,N/A,,Mostly Cloudy,290,2013-12-07 16:50:00
7:20 PM,57.2,55.4,94,29.98,6.2,WNW,16.1,-,N/A,,Scattered Clouds,290,2013-12-07 17:20:00
7:50 PM,57.2,55.4,94,29.98,6.2,WNW,19.6,-,N/A,,Partly Cloudy,300,2013-12-07 17:50:00
8:00 PM,58,55,88,30.00,6,WNW,19.6,,,,Scattered Clouds,300,2013-12-07 18:00:00
8:20 PM,57.2,53.6,88,30.01,6.2,WNW,18.4,-,N/A,,Partly Cloudy,300,2013-12-07 18:20:00
8:50 PM,57.2,55.4,94,30.01,6.2,WNW,16.1,-,N/A,,Partly Cloudy,290,2013-12-07 18:50:00
9:20 PM,57.2,53.6,88,30.01,6.2,WNW,13.8,-,N/A,,Partly Cloudy,300,2013-12-07 19:20:00
9:50 PM,57.2,55.4,94,30.04,6.2,WNW,16.1,-,N/A,,Partly Cloudy,300,2013-12-07 19:50:00
10:20 PM,57.2,55.4,94,30.04,6.2,WNW,16.1,-,N/A,,Partly Cloudy,300,2013-12-07 20:20:00
10:50 PM,57.2,37.4,48,30.06,6.2,WNW,16.1,-,N/A,,Partly Cloudy,300,2013-12-07 20:50:00
11:20 PM,57.2,37.4,48,30.06,6.2,WNW,16.1,-,N/A,,Partly Cloudy,300,2013-12-07 21:20:00
11:50 PM,55.4,39.2,54,30.09,6.2,NW,17.3,-,N/A,,Partly Cloudy,310,2013-12-07 21:50:00